Location: Newark
(43.0658°N, 122.2322°W)
Time: 09:11:41
(UTC+00:00)

STARLINK-1758 - Pass Details

Date: 21 September 2020
Orbit: 378 x 381 km, 53.0° (Epoch: 24 October)

Event Time Altitude Azimuth Distance (km) Brightness Sun altitude
Exits shadow 12:03:48 15° 347° (NNW) 1,143 5.3 -20.8°
Maximum altitude 12:03:55 15° 350° (N) 1,141 5.4 -20.8°
Drops below altitude 10° 12:05:51 10° 28° (NNE) 1,405 6.4 -20.4°
Sets 12:08:32 0° 53° (NE) 2,259 8.1 -20.0°
